DB7GV-8 Weather Reports


time (UTC)temp
C
wind
direction
speed
KPH
gust
KPH
rain 1hr
cm
rain 24hr
cm
rain mn
cm
humidity
%
barometer
mb
20260502162934 26 0 0.0 0.0 0.00 0.00 0.00 30 1017.2
20260502161429 27 0 0.0 0.0 0.00 0.00 0.00 26 1017.4
20260502151408 27 0 0.0 0.0 0.00 0.00 0.00 26 1018.1
20260502122808 27 0 0.0 0.0 0.00 0.00 0.00 23 1020.3
20260502121302 27 0 0.0 0.0 0.00 0.00 0.00 23 1020.5
20260502115757 27 0 0.0 0.0 0.00 0.00 0.00 23 1020.8
20260502114252 27 0 0.0 0.0 0.00 0.00 0.00 25 1021.0
20260502112746 27 0 0.0 0.0 0.00 0.00 0.00 26 1021.2
20260502111241 27 0 0.0 0.0 0.00 0.00 0.00 27 1021.4
20260502105736 27 0 0.0 0.0 0.00 0.00 0.00 28 1021.6
20260502104229 27 0 0.0 0.0 0.00 0.00 0.00 28 1021.7
20260502102724 27 0 0.0 0.0 0.00 0.00 0.00 28 1021.9
20260502101219 26 0 0.0 0.0 0.00 0.00 0.00 28 1022.2
20260502091158 25 0 0.0 0.0 0.00 0.00 0.00 29 1022.9
20260502071114 32 0 0.0 0.0 0.00 0.00 0.00 24 1023.7
20260502065608 29 0 0.0 0.0 0.00 0.00 0.00 28 1023.7
20260502064103 18 0 0.0 0.0 0.00 0.00 0.00 43 1023.7
20260502062558 15 0 0.0 0.0 0.00 0.00 0.00 61 1023.9
20260502061052 8 0 0.0 0.0 0.00 0.00 0.00 70 1023.8
20260502055547 8 0 0.0 0.0 0.00 0.00 0.00 71 1023.9
20260502054041 7 0 0.0 0.0 0.00 0.00 0.00 72 1024.0
20260502052536 7 0 0.0 0.0 0.00 0.00 0.00 73 1024.0
20260502051030 6 0 0.0 0.0 0.00 0.00 0.00 74 1024.0
20260502045525 6 0 0.0 0.0 0.00 0.00 0.00 75 1023.9
20260502044020 5 0 0.0 0.0 0.00 0.00 0.00 75 1023.8
20260502042514 5 0 0.0 0.0 0.00 0.00 0.00 75 1023.8
20260502041009 5 0 0.0 0.0 0.00 0.00 0.00 74 1023.8
20260502035503 5 0 0.0 0.0 0.00 0.00 0.00 74 1023.7
20260502033958 5 0 0.0 0.0 0.00 0.00 0.00 74 1023.7
20260502032453 5 0 0.0 0.0 0.00 0.00 0.00 73 1023.7
20260502030948 6 0 0.0 0.0 0.00 0.00 0.00 72 1023.7
20260502025442 6 0 0.0 0.0 0.00 0.00 0.00 72 1023.7
20260502022431 6 0 0.0 0.0 0.00 0.00 0.00 71 1023.7
20260502020926 6 0 0.0 0.0 0.00 0.00 0.00 70 1023.8
20260502015420 6 0 0.0 0.0 0.00 0.00 0.00 69 1023.8
20260502013915 7 0 0.0 0.0 0.00 0.00 0.00 69 1023.8
20260502012410 7 0 0.0 0.0 0.00 0.00 0.00 68 1023.8
20260502010904 7 0 0.0 0.0 0.00 0.00 0.00 68 1023.9
20260502005359 7 0 0.0 0.0 0.00 0.00 0.00 67 1023.8
20260502003853 7 0 0.0 0.0 0.00 0.00 0.00 67 1023.9
20260502002347 7 0 0.0 0.0 0.00 0.00 0.00 67 1024.0
20260502000842 7 0 0.0 0.0 0.00 0.00 0.00 66 1024.0
20260501235337 8 0 0.0 0.0 0.00 0.00 0.00 65 1024.1
20260501233831 8 0 0.0 0.0 0.00 0.00 0.00 65 1024.1
20260501232326 8 0 0.0 0.0 0.00 0.00 0.00 64 1024.0
20260501230821 8 0 0.0 0.0 0.00 0.00 0.00 64 1024.0
20260501225315 8 0 0.0 0.0 0.00 0.00 0.00 63 1024.0
20260501223810 8 0 0.0 0.0 0.00 0.00 0.00 63 1024.0
20260501222306 8 0 0.0 0.0 0.00 0.00 0.00 62 1024.0
20260501220759 9 0 0.0 0.0 0.00 0.00 0.00 60 1023.9
20260501215253 10 0 0.0 0.0 0.00 0.00 0.00 60 1023.9
20260501213748 10 0 0.0 0.0 0.00 0.00 0.00 59 1023.8
20260501212243 10 0 0.0 0.0 0.00 0.00 0.00 59 1023.9
20260501210737 10 0 0.0 0.0 0.00 0.00 0.00 58 1023.9
20260501205232 10 0 0.0 0.0 0.00 0.00 0.00 58 1023.9
20260501203727 11 0 0.0 0.0 0.00 0.00 0.00 56 1023.9
20260501202221 11 0 0.0 0.0 0.00 0.00 0.00 56 1023.9
20260501200716 12 0 0.0 0.0 0.00 0.00 0.00 55 1023.8
20260501195211 12 0 0.0 0.0 0.00 0.00 0.00 54 1023.6
20260501193705 12 0 0.0 0.0 0.00 0.00 0.00 53 1023.4
20260501192200 13 0 0.0 0.0 0.00 0.00 0.00 52 1023.3
20260501190654 13 0 0.0 0.0 0.00 0.00 0.00 50 1023.2
20260501185148 15 0 0.0 0.0 0.00 0.00 0.00 48 1023.1
20260501183643 15 0 0.0 0.0 0.00 0.00 0.00 46 1023.0
20260501182138 16 0 0.0 0.0 0.00 0.00 0.00 44 1022.8
20260501180632 17 0 0.0 0.0 0.00 0.00 0.00 41 1022.7
20260501175127 18 0 0.0 0.0 0.00 0.00 0.00 39 1022.7
20260501173621 19 0 0.0 0.0 0.00 0.00 0.00 37 1022.6
20260501172116 20 0 0.0 0.0 0.00 0.00 0.00 32 1022.5
20260501170611 22 0 0.0 0.0 0.00 0.00 0.00 25 1022.5
20260501165106 23 0 0.0 0.0 0.00 0.00 0.00 23 1022.5